Time,TemperatureF,DewpointF,PressureIn,WindDirection,WindDirectionDegrees,WindSpeedMPH,WindSpeedGustMPH,Humidity,HourlyPrecipIn,Conditions,Clouds,dailyrainin,SoftwareType,DateUTC
2013-10-19 00:14:00,46.0,39.0,29.96,South,175,2.0,2.0,75,0.00,,,0.00,,2013-10-19 04:14:00,
2013-10-19 00:24:00,46.0,39.0,29.96,South,172,2.0,3.0,75,0.00,,,0.00,,2013-10-19 04:24:00,
2013-10-19 00:44:00,45.0,38.0,29.96,South,172,2.0,3.0,76,0.00,,,0.00,,2013-10-19 04:44:00,
2013-10-19 00:54:00,45.0,39.0,29.96,South,173,2.0,4.0,78,0.00,,,0.00,,2013-10-19 04:54:00,
2013-10-19 01:13:00,44.0,38.0,29.96,WSW,238,0.0,3.0,78,0.00,,,0.00,,2013-10-19 05:13:00,
2013-10-19 01:23:00,45.0,39.0,29.96,WSW,250,0.0,1.0,78,0.00,,,0.00,,2013-10-19 05:23:00,
2013-10-19 01:42:00,44.0,38.0,29.96,WSW,250,0.0,1.0,79,0.00,,,0.00,,2013-10-19 05:42:00,
2013-10-19 01:52:00,44.0,38.0,29.96,WSW,250,0.0,0.0,80,0.00,,,0.00,,2013-10-19 05:52:00,
2013-10-19 02:12:00,42.0,37.0,29.96,SSE,165,0.0,1.0,82,0.00,,,0.00,,2013-10-19 06:12:00,
2013-10-19 02:22:00,43.0,38.0,29.96,SSE,165,0.0,1.0,81,0.00,,,0.00,,2013-10-19 06:22:00,
2013-10-19 02:42:00,43.0,38.0,29.96,SSE,164,0.0,0.0,82,0.00,,,0.00,,2013-10-19 06:42:00,
2013-10-19 02:52:00,43.0,38.0,29.95,SSE,165,0.0,2.0,82,0.00,,,0.00,,2013-10-19 06:52:00,
2013-10-19 03:11:00,44.0,39.0,29.95,WNW,296,0.0,2.0,81,0.00,,,0.00,,2013-10-19 07:11:00,
2013-10-19 03:22:00,44.0,39.0,29.95,West,274,0.0,1.0,81,0.00,,,0.00,,2013-10-19 07:22:00,
2013-10-19 03:42:00,43.0,38.0,29.95,South,170,0.0,4.0,82,0.00,,,0.00,,2013-10-19 07:42:00,
2013-10-19 03:52:00,43.0,38.0,29.95,NW,304,0.0,4.0,82,0.00,,,0.00,,2013-10-19 07:52:00,
2013-10-19 04:11:00,43.0,38.0,29.95,South,173,0.0,1.0,84,0.00,,,0.00,,2013-10-19 08:11:00,
2013-10-19 04:22:00,42.0,38.0,29.95,SW,236,0.0,2.0,84,0.00,,,0.00,,2013-10-19 08:22:00,
2013-10-19 04:42:00,42.0,38.0,29.95,SSE,154,1.0,2.0,85,0.00,,,0.00,,2013-10-19 08:42:00,
2013-10-19 04:52:00,42.0,38.0,29.95,SSE,163,0.0,3.0,84,0.00,,,0.00,,2013-10-19 08:52:00,
2013-10-19 05:12:00,43.0,38.0,29.94,South,187,0.0,1.0,83,0.00,,,0.00,,2013-10-19 09:12:00,
2013-10-19 05:22:00,42.0,38.0,29.93,SSE,149,0.0,1.0,84,0.00,,,0.00,,2013-10-19 09:22:00,
2013-10-19 05:43:00,42.0,38.0,29.93,SE,146,0.0,1.0,85,0.00,,,0.00,,2013-10-19 09:43:00,
2013-10-19 05:54:00,41.0,37.0,29.93,SSE,148,0.0,0.0,86,0.00,,,0.00,,2013-10-19 09:54:00,
2013-10-19 06:13:00,38.0,36.0,29.93,SSE,166,0.0,1.0,91,0.00,,,0.00,,2013-10-19 10:13:00,
2013-10-19 06:23:00,37.0,35.0,29.93,NW,319,0.0,0.0,93,0.00,,,0.00,,2013-10-19 10:23:00,
2013-10-19 06:42:00,37.0,35.0,29.93,South,186,0.0,1.0,94,0.00,,,0.00,,2013-10-19 10:42:00,
2013-10-19 06:53:00,37.0,36.0,29.93,South,173,1.0,3.0,95,0.00,,,0.00,,2013-10-19 10:53:00,
2013-10-19 07:12:00,38.0,36.0,29.92,South,172,2.0,4.0,94,0.00,,,0.00,,2013-10-19 11:12:00,
2013-10-19 07:22:00,37.0,36.0,29.91,SSE,164,0.0,2.0,95,0.00,,,0.00,,2013-10-19 11:22:00,
2013-10-19 07:42:00,37.0,36.0,29.91,South,174,2.0,3.0,95,0.00,,,0.00,,2013-10-19 11:42:00,
2013-10-19 07:52:00,37.0,36.0,29.91,South,174,1.0,2.0,95,0.00,,,0.00,,2013-10-19 11:52:00,
2013-10-19 08:12:00,36.0,35.0,29.91,South,184,4.0,6.0,95,0.00,,,0.00,,2013-10-19 12:12:00,
2013-10-19 08:22:00,35.0,34.0,29.91,SSE,164,2.0,5.0,96,0.00,,,0.00,,2013-10-19 12:22:00,
2013-10-19 08:43:00,35.0,34.0,29.92,South,177,2.0,5.0,96,0.00,,,0.00,,2013-10-19 12:43:00,
2013-10-19 08:52:00,35.0,34.0,29.92,South,184,0.0,3.0,97,0.00,,,0.00,,2013-10-19 12:52:00,
2013-10-19 09:12:00,37.0,36.0,29.91,South,173,0.0,3.0,97,0.00,,,0.00,,2013-10-19 13:12:00,
2013-10-19 09:22:00,38.0,37.0,29.91,South,172,0.0,1.0,97,0.00,,,0.00,,2013-10-19 13:22:00,
2013-10-19 09:42:00,38.0,37.0,29.92,SSE,166,0.0,1.0,97,0.00,,,0.00,,2013-10-19 13:42:00,
2013-10-19 09:52:00,38.0,37.0,29.92,South,176,2.0,4.0,96,0.00,,,0.00,,2013-10-19 13:52:00,
2013-10-19 10:11:00,40.0,38.0,29.91,South,176,2.0,4.0,93,0.00,,,0.00,,2013-10-19 14:11:00,
2013-10-19 10:22:00,43.0,40.0,29.90,SSE,163,4.0,6.0,88,0.00,,,0.00,,2013-10-19 14:22:00,
2013-10-19 10:42:00,44.0,39.0,29.90,SSE,155,4.0,5.0,84,0.00,,,0.00,,2013-10-19 14:42:00,
2013-10-19 10:52:00,46.0,41.0,29.89,South,176,3.0,6.0,81,0.00,,,0.00,,2013-10-19 14:52:00,
2013-10-19 11:11:00,47.0,41.0,29.89,South,176,4.0,5.0,79,0.00,,,0.00,,2013-10-19 15:11:00,
2013-10-19 11:22:00,48.0,41.0,29.88,SSW,210,6.0,8.0,76,0.00,,,0.00,,2013-10-19 15:22:00,
2013-10-19 11:44:00,49.0,41.0,29.88,SSE,153,5.0,8.0,74,0.00,,,0.00,,2013-10-19 15:44:00,
2013-10-19 11:55:00,51.0,42.0,29.86,South,172,5.0,9.0,72,0.00,,,0.00,,2013-10-19 15:55:00,
2013-10-19 12:14:00,52.0,42.0,29.86,South,170,5.0,11.0,68,0.00,,,0.00,,2013-10-19 16:14:00,
2013-10-19 12:24:00,53.0,43.0,29.85,South,176,5.0,12.0,70,0.00,,,0.00,,2013-10-19 16:24:00,
2013-10-19 12:43:00,53.0,42.0,29.84,SSE,161,5.0,14.0,65,0.00,,,0.00,,2013-10-19 16:43:00,
2013-10-19 12:53:00,53.0,42.0,29.84,South,174,9.0,17.0,67,0.00,,,0.00,,2013-10-19 16:53:00,
2013-10-19 13:13:00,54.0,43.0,29.83,SSE,148,6.0,15.0,65,0.00,,,0.00,,2013-10-19 17:13:00,
2013-10-19 13:22:00,54.0,43.0,29.82,SSE,158,8.0,17.0,65,0.00,,,0.00,,2013-10-19 17:22:00,
2013-10-19 13:43:00,54.0,43.0,29.81,South,169,6.0,15.0,66,0.00,,,0.00,,2013-10-19 17:43:00,
2013-10-19 13:52:00,53.0,42.0,29.80,SSE,166,6.0,13.0,67,0.00,,,0.00,,2013-10-19 17:52:00,
2013-10-19 14:12:00,53.0,43.0,29.79,SE,141,5.0,12.0,68,0.00,,,0.00,,2013-10-19 18:12:00,
2013-10-19 14:22:00,53.0,44.0,29.78,SSE,167,6.0,15.0,71,0.00,,,0.00,,2013-10-19 18:22:00,
2013-10-19 14:42:00,52.0,44.0,29.77,SE,139,6.0,15.0,73,0.00,,,0.00,,2013-10-19 18:42:00,
2013-10-19 14:52:00,51.0,44.0,29.76,South,176,8.0,14.0,76,0.00,,,0.00,,2013-10-19 18:52:00,
2013-10-19 15:12:00,51.0,44.0,29.76,SSE,168,6.0,12.0,77,0.00,,,0.00,,2013-10-19 19:12:00,
2013-10-19 15:22:00,50.0,45.0,29.76,SSE,160,5.0,13.0,82,0.00,,,0.00,,2013-10-19 19:22:00,
2013-10-19 15:42:00,49.0,46.0,29.75,South,176,3.0,14.0,89,0.00,,,0.00,,2013-10-19 19:42:00,
2013-10-19 15:52:00,49.0,46.0,29.75,South,170,5.0,11.0,90,0.00,,,0.00,,2013-10-19 19:52:00,
2013-10-19 16:12:00,48.0,46.0,29.75,SSE,165,3.0,9.0,92,0.00,,,0.00,,2013-10-19 20:12:00,
2013-10-19 16:22:00,48.0,46.0,29.75,South,169,3.0,7.0,92,0.00,,,0.00,,2013-10-19 20:22:00,
2013-10-19 16:42:00,48.0,46.0,29.74,SSE,160,4.0,9.0,94,0.02,,,0.02,,2013-10-19 20:42:00,
2013-10-19 16:52:00,48.0,46.0,29.74,South,188,5.0,9.0,94,0.02,,,0.02,,2013-10-19 20:52:00,
2013-10-19 17:11:00,48.0,47.0,29.74,South,189,6.0,12.0,95,0.02,,,0.02,,2013-10-19 21:11:00,
2013-10-19 17:22:00,48.0,47.0,29.73,South,191,4.0,16.0,95,0.02,,,0.02,,2013-10-19 21:22:00,
2013-10-19 17:44:00,48.0,47.0,29.74,SSE,158,4.0,11.0,95,0.01,,,0.03,,2013-10-19 21:44:00,
2013-10-19 17:54:00,48.0,47.0,29.74,SSE,162,3.0,8.0,96,0.01,,,0.03,,2013-10-19 21:54:00,
2013-10-19 18:14:00,48.0,47.0,29.74,SSE,163,6.0,9.0,96,0.01,,,0.03,,2013-10-19 22:14:00,
2013-10-19 18:24:00,48.0,47.0,29.73,SW,219,6.0,11.0,96,0.01,,,0.03,,2013-10-19 22:24:00,
2013-10-19 18:43:00,48.0,47.0,29.72,South,186,7.0,13.0,95,0.00,,,0.03,,2013-10-19 22:43:00,
2013-10-19 18:53:00,48.0,46.0,29.73,SSW,195,7.0,14.0,94,0.00,,,0.03,,2013-10-19 22:53:00,
2013-10-19 19:12:00,48.0,46.0,29.73,South,172,5.0,11.0,94,0.00,,,0.03,,2013-10-19 23:12:00,
2013-10-19 19:22:00,48.0,46.0,29.73,SSW,203,4.0,9.0,94,0.00,,,0.03,,2013-10-19 23:22:00,
2013-10-19 19:42:00,48.0,46.0,29.73,South,171,4.0,9.0,94,0.00,,,0.03,,2013-10-19 23:42:00,
2013-10-19 19:52:00,48.0,46.0,29.73,SSE,165,5.0,9.0,94,0.01,,,0.04,,2013-10-19 23:52:00,
2013-10-19 20:11:00,48.0,47.0,29.71,SSW,201,6.0,10.0,95,0.01,,,0.04,,2013-10-20 00:11:00,
2013-10-19 20:23:00,47.0,45.0,29.72,South,171,4.0,9.0,94,0.01,,,0.04,,2013-10-20 00:23:00,
2013-10-19 20:42:00,47.0,45.0,29.72,SSE,160,5.0,12.0,93,0.01,,,0.04,,2013-10-20 00:42:00,
2013-10-19 20:52:00,48.0,46.0,29.72,SSW,197,5.0,10.0,92,0.00,,,0.04,,2013-10-20 00:52:00,
2013-10-19 21:11:00,47.0,45.0,29.73,South,178,4.0,11.0,92,0.00,,,0.04,,2013-10-20 01:11:00,
2013-10-19 21:22:00,47.0,45.0,29.73,South,181,3.0,8.0,91,0.00,,,0.04,,2013-10-20 01:22:00,
2013-10-19 21:32:00,47.0,45.0,29.73,South,181,3.0,8.0,91,0.00,,,0.04,,2013-10-20 01:32:00,
2013-10-19 21:42:00,47.0,45.0,29.73,South,181,3.0,8.0,91,0.00,,,0.04,,2013-10-20 01:42:00,
2013-10-19 21:52:00,47.0,44.0,29.75,SE,129,2.0,13.0,90,0.00,,,0.04,,2013-10-20 01:52:00,
2013-10-19 22:12:00,47.0,45.0,29.76,NW,322,5.0,17.0,91,0.02,,,0.06,,2013-10-20 02:12:00,
2013-10-19 22:22:00,47.0,44.0,29.77,NNW,330,8.0,15.0,89,0.02,,,0.06,,2013-10-20 02:22:00,
2013-10-19 22:42:00,46.0,42.0,29.77,WNW,290,7.0,21.0,85,0.02,,,0.06,,2013-10-20 02:42:00,
2013-10-19 22:52:00,46.0,42.0,29.78,WNW,290,7.0,18.0,85,0.01,,,0.06,,2013-10-20 02:52:00,
2013-10-19 23:12:00,45.0,40.0,29.79,WNW,284,7.0,16.0,83,0.00,,,0.06,,2013-10-20 03:12:00,
2013-10-19 23:22:00,45.0,40.0,29.79,WSW,248,5.0,14.0,82,0.00,,,0.06,,2013-10-20 03:22:00,
2013-10-19 23:44:00,45.0,40.0,29.80,WNW,289,5.0,13.0,82,0.00,,,0.06,,2013-10-20 03:44:00,
2013-10-19 23:54:00,44.0,39.0,29.80,West,266,6.0,14.0,81,0.00,,,0.06,,2013-10-20 03:54:00,